Powrót do katalogu

TRAILBLAZER 2

AktywnyNaukaLEO
NORAD 27609·PAYLOAD·🇺🇸 United States

Wystrzelony Dec 20, 2002 z Baikonur Cosmodrome

Loading…

Następne Przeloty (najbliższe 24 godziny)

TLE

ŚwieżeSource: Space-Track

Epoka: Sep 14, 2026, 11:03 UTC

1 27609U 02058E   26257.46044988  .00000213  00000-0  45534-4 0  9995
2 27609  64.5548  61.3598 0042678 231.5601 128.1671 14.81398226280915

Śledź TRAILBLAZER 2 w czasie rzeczywistym z AllMySat

Download on the App Store